User: anonymous   Login
Location: Dumpton Point
(51.3500°N, 1.4433°E)
Time: 17:55:33
(UTC+00:00)
Language:

A-11 Canister half - Orbit

View from above orbital plane
View from above orbital plane
View from above satellite
View from above satellite

Ground track
Ground track

The orbit data is extracted from the following two-line orbital elements,

1 00053U 60009E   21108.57940443 -.00000113  00000-0 -28173-3 0  9992
2 00053  47.2791  38.0217 0098889 263.8642  95.0872 12.17254850705732
Epoch (UTC): 18 April 2021 13:54:20
Eccentricity: 0.0098889
inclination: 47.2791°
perigee height: 1525 km
apogee height: 1683 km
right ascension of ascending node: 38.0217°
argument of perigee: 263.8642°
revolutions per day: 12.17254850
mean anomaly at epoch: 95.0872°
orbit number at epoch: 70573

The dashed part of the orbit path shows where the satellite is in the earth's shadow,  

DLR